Miscellaneous Local Product
Issued by NWS North Platte, NE

Home | Current Version | Previous Version | Text Only | Print | Product List | Glossary On
Versions: 1 2 3 4 5 6 7 8 9 10 11 12 13 14 15 16 17 18 19 20 21 22 23 24 25 26 27 28 29 30 31 32 33 34 35 36 37 38 39 40 41 42 43 44 45 46 47 48 49 50
806
AXUS43 KLBF 221610
MISLBF


WESTERN AND NORTH CENTRAL NEBRASKA HOURLY WEATHER ROUNDUP
NATIONAL WEATHER SERVICE NORTH PLATTE NE
1100 AM CDT THU JUN 22 2017

NOTE: "FAIR" INDICATES FEW OR NO CLOUDS BELOW 12,000 FEET WITH NO
SIGNIFICANT WEATHER AND/OR OBSTRUCTIONS TO VISIBILITY.

NOTE: STATIONS NOT REPORTING VARIABLES SUCH AS SKY/WEATHER OR
PRESSURE ARE PROVIDED BY RAWS AND APRS NETWORKS AND ARE NOT UNDER
NATIONAL WEATHER SERVICE QUALITY CONTROL.

...OBSERVATIONS IN AND NEAR THE EASTERN PANHANDLE OF NEBRASKA...

CITY           SKY/WX    TMP DP  RH WIND       PRES   REMARKS
PINE RIDGE     CLOUDY    68  56  65 NE17G23   29.92R
GORDON         CLOUDY    67  54  64 NE15G21   29.90R
CHADRON        SUNNY     72  50  45 NE10G17   29.91R
ALLIANCE       SUNNY     69  53  56 N18       29.90R
SIDNEY         SUNNY     76  53  44 N24G35    29.88S
CRESCENT LAKE    N/A     71  55  56 N21G32      N/A
$$

...OBSERVATIONS IN NORTHERN NEBRASKA AND FAR SOUTHERN SOUTH DAKOTA...

CITY           SKY/WX    TMP DP  RH WIND       PRES   REMARKS
WINNER         CLOUDY    70  58  65 N9        29.81R
VALENTINE      CLOUDY    72  54  53 NE18G26   29.82R
THEDFORD       CLOUDY    74  62  65 NE22G28   29.77R
AINSWORTH      PTSUNNY   73  57  57 NE17G28   29.78R
O`NEILL        CLOUDY    76  62  61 NE23G32   29.72R
ORD            SUNNY     83  59  44 N7        29.64R
BROKEN BOW     SUNNY     84  61  45 N13       29.66R
VALENTINE NWR    N/A     70  56  61 NE16G23     N/A
HALSEY           N/A     77  63  62 N10         N/A
BUTTE            N/A     69  58  68 N12G18      N/A
CHAMBERS         N/A     83  69  63 N3          N/A
EWING            N/A     82  70  66 NE3G12      N/A
$$

...OBSERVATIONS IN SOUTHWEST NEBRASKA AND FAR NORTHEAST COLORADO...

CITY           SKY/WX    TMP DP  RH WIND       PRES   REMARKS
WRAY           FAIR      91  39  16 N24       29.79R
IMPERIAL       SUNNY     86  50  28 N28G37    29.76R
OGALLALA       SUNNY     82  57  42 N17G25    29.79R
NORTH PLATTE   CLOUDY    87  53  31 NW17G30   29.70R
MCCOOK         SUNNY     94  51  23 NW17      29.66R HX  91
LEXINGTON      MOSUNNY   84  64  49 NW7       29.66R
STAPLETON        N/A     80  64  58 CALM        N/A
GOTHENBURG       N/A     82  56  40 NW5         N/A
CALLAWAY         N/A     84  60  43 NW13        N/A
$$

...OBSERVATIONS IN CENTRAL LINCOLN COUNTY AREA...

CITY           SKY/WX    TMP DP  RH WIND       PRES   REMARKS
N.P. AIRPORT   CLOUDY    87  53  31 NW17G30   29.70R
N.P. DOWNTOWN    N/A     84  58  41 NW10G18     N/A
N.P. HILLCREST   N/A     82  60  47 N22G32      N/A
$$

...SOME OBSERVATIONS FROM AROUND THE REGION...

CITY           SKY/WX    TMP DP  RH WIND       PRES   REMARKS
DENVER         PTSUNNY   90  36  14 NW5       29.92F
LIMON          SUNNY     92  36  14 VRB3      29.91F
ASPEN          CLOUDY    68  42  38 VRB7      30.15S
LARAMIE        SUNNY     70  41  34 N14       30.08S
CASPER         SUNNY     64  38  38 NE15G21   30.08R
CHEYENNE       SUNNY     69  46  43 N18G29    30.02R
SCOTTSBLUFF    SUNNY     77  50  38 N15G22    29.91R
GRAND ISLAND   CLOUDY    82  63  52 S9        29.64R
OMAHA          MOSUNNY   82  63  52 S21       29.65F
SIOUX FALLS    CLOUDY    73  64  73 E16       29.70F
PIERRE         PTSUNNY   65  53  65 N13       29.82R
RAPID CITY     CLOUDY    63  45  51 NW23      29.96R
BISMARCK       PTSUNNY   70  45  40 NW16G26   29.83S
KANSAS CITY    MOSUNNY   82  71  69 SW17      29.75S
HILL CITY      SUNNY     87  63  44 S10       29.66F
WICHITA        MOSUNNY   83  67  58 S17       29.75F
DODGE CITY     SUNNY     83  61  47 S20       29.75F
OKLAHOMA CITY  MOSUNNY   79  66  64 VRB7      29.79F
DALLAS         PTSUNNY   82  72  71 NE10      29.70S
AMARILLO       SUNNY     84  56  38 S7        29.86F
$$




USA.gov is the U.S. government's official web portal to all federal, state and local government web resources and services.